TDRS 9

导读

TDRS-9(跟踪与数据中继卫星9号)是美国NASA近空网络(NSN)的重要组成部分,由波音公司基于HS 601平台研制,于2002年3月8日发射进入地球同步轨道。作为TDRS星座的一员,它承担为国际空间站、对地观测卫星等航天器提供双向通信、数据传输服务,支撑科学数据分发与任务导航。这颗卫星配备双5米可控反射器,支持S、Ku波段通信,于2023年正式结束使命,服役超20年。

基本信息
目录编号:
27389
目录名称:
TDRS 9
国际标识:
2002-011A
轨道中心:
EARTH
卫星名称:
TDRS 9
卫星全名:
--
卫星状态:
在轨 (已飞行8894 天)
发射日期:
2002-03-08 UTC
国别 :
美国 (US)
星等 :
--
轨道信息
数据来源 国际轨道数据 AOE轨道数据
星历时间 2026-07-13T20:33:51+0800
16小时前
查看轨道信息
2026-07-12T19:00:00+0800
1天前
查看轨道信息
半长轴 42529.625km 42529.596km
偏心率 0.000434 0.0004232
轨道倾角 12.226° 12.224°
近地点辐角 121.749° 120.470°
升交点赤经 46.542° 46.554°
平近点角 89.607° 71.300°
近地点 36133.03km 36133.46km
远地点 36169.946km 36169.458km
周期 1454.779分钟 1454.778分钟
每日圈数 0.989841 0.989842
详细信息
使用方式:
暂无
2D轨道图
3D轨道图
轨道高度分析图
轨道倾角分析图
轨道综合分析图
查看轨道综合分析图